Humidity-temperature Sensor

Selected Measurement Type: Air Temperature

 
Air Temperature [°C]     6 entries per hour
Showing data from 3/31/2023 (00:00:00 Z) to 3/30/2023 (00:01:00 Z)
Previous Next [ Day | 3-Days | 7-Days ]
First Last
Prev [ Day | 3-Days | 7-Days ] Next
First Last

Start Time:     :
End Time:     :     
Time (in GMT) :00 :50 :40 :30 :20 :10
Previous Next [ Day | 3-Days | 7-Days ]
First Last
Prev [ Day | 3-Days | 7-Days ] Next
First Last


123 => good data
MM => data is determined as missing
-- => data not received/configured
Back to Top Back to Top
3/31/2023 00:00 to 23:10 27.73 27.84 27.77 27.94 27.67 27.54
3/30/2023 23:00 to 22:10 28.17 27.90 28.31 28.35 28.24 28.25
3/30/2023 22:00 to 21:10 28.24 28.23 28.16 28.19 28.23 28.16
3/30/2023 21:00 to 20:10 28.28 28.14 28.21 28.23 28.21 27.98
3/30/2023 20:00 to 19:10 27.82 28.03 28.05 27.95 27.95 27.95
3/30/2023 19:00 to 18:10 27.75 27.96 27.92 27.98 27.79 27.95
3/30/2023 18:00 to 17:10 27.89 27.88 27.91 27.91 27.95 27.97
3/30/2023 17:00 to 16:10 27.92 28.00 27.91 27.84 28.00 27.84
3/30/2023 16:00 to 15:10 27.88 27.93 27.80 27.73 27.68 27.73
3/30/2023 15:00 to 14:10 27.74 27.65 27.76 27.75 27.72 27.85
3/30/2023 14:00 to 13:10 27.69 27.79 27.72 27.96 27.91 27.69
3/30/2023 13:00 to 12:10 27.89 27.86 27.94 27.88 27.92 27.96
3/30/2023 12:00 to 11:10 27.89 27.94 27.95 28.00 27.91 28.01
3/30/2023 11:00 to 10:10 27.90 27.88 28.00 27.91 27.92 27.98
3/30/2023 10:00 to 9:10 27.90 27.87 27.84 27.82 27.87 27.87
3/30/2023 09:00 to 8:10 27.87 27.97 27.81 28.06 27.84 27.91
3/30/2023 08:00 to 7:10 27.91 27.80 28.18 28.13 28.15 28.05
3/30/2023 07:00 to 6:10 28.22 28.17 28.20 28.25 28.08 28.12
3/30/2023 06:00 to 5:10 28.15 28.10 28.08 28.20 28.14 28.24
3/30/2023 05:00 to 4:10 27.93 27.50 28.36 28.24 28.18 28.21
3/30/2023 04:00 to 3:10 28.16 28.35 28.21 28.19 28.21 28.20
3/30/2023 03:00 to 2:10 28.19 28.12 28.14 28.18 28.21 28.19
3/30/2023 02:00 to 1:10 28.28 28.10 28.16 28.30 28.18 28.12
3/30/2023 01:00 to 0:10 28.10 28.16 28.21 28.37 28.14 28.15